| time (UTC) | temp F | wind direction | speed knots | gust knots | rain 1hr in | rain 24hr in | rain mn in | humidity % | barometer mb |
| 20260504184511 | 71 | 237 | 5.2 | 13.0 | 0.00 | 0.00 | 0.00 | 57 | 1009.1 |
| 20260504183013 | 72 | 330 | 6.1 | 13.0 | 0.00 | 0.00 | 0.00 | 56 | 1009.0 |
| 20260504181511 | 72 | 249 | 3.5 | 8.7 | 0.00 | 0.00 | 0.00 | 59 | 1009.1 |
| 20260504180008 | 70 | 213 | 6.1 | 10.4 | 0.00 | 0.00 | 0.00 | 56 | 1009.2 |
| 20260504174511 | 70 | 237 | 6.1 | 13.9 | 0.00 | 0.00 | 0.00 | 58 | 1009.3 |
| 20260504173022 | 71 | 255 | 3.5 | 8.7 | 0.00 | 0.00 | 0.00 | 59 | 1009.4 |
| 20260504171518 | 68 | 236 | 6.1 | 12.2 | 0.00 | 0.00 | 0.00 | 60 | 1009.6 |
| 20260504081513 | 49 | 225 | 0.0 | 1.7 | 0.00 | 0.00 | 0.00 | 73 | 1012.3 |
| 20260504050010 | 50 | 128 | 0.0 | 1.7 | 0.00 | 0.00 | 0.00 | 72 | 1014.2 |
| 20260504044532 | 51 | 128 | 0.0 | 0.9 | 0.00 | 0.00 | 0.00 | 71 | 1014.3 |
| 20260504043018 | 51 | 122 | 0.0 | 0.0 | 0.00 | 0.00 | 0.00 | 70 | 1014.3 |
| 20260504041514 | 51 | 122 | 0.0 | 0.9 | 0.00 | 0.00 | 0.00 | 69 | 1014.6 |
| 20260504040011 | 51 | 122 | 0.0 | 1.7 | 0.00 | 0.00 | 0.00 | 70 | 1014.6 |
| 20260504034512 | 51 | 122 | 0.0 | 0.0 | 0.00 | 0.00 | 0.00 | 70 | 1014.9 |
| 20260504033011 | 51 | 122 | 0.0 | 2.6 | 0.00 | 0.00 | 0.00 | 70 | 1015.0 |
| 20260504031511 | 51 | 123 | 0.0 | 2.6 | 0.00 | 0.00 | 0.00 | 69 | 1015.0 |
| 20260504030007 | 51 | 123 | 0.0 | 1.7 | 0.00 | 0.00 | 0.00 | 69 | 1015.1 |
| 20260504024516 | 51 | 124 | 0.9 | 2.6 | 0.00 | 0.00 | 0.00 | 71 | 1015.2 |
| 20260504023007 | 50 | 140 | 0.0 | 1.7 | 0.00 | 0.00 | 0.00 | 75 | 1015.2 |
| 20260504021511 | 50 | 136 | 0.0 | 1.7 | 0.00 | 0.00 | 0.00 | 76 | 1015.3 |
| 20260504020013 | 50 | 161 | 0.0 | 1.7 | 0.00 | 0.00 | 0.00 | 75 | 1015.3 |
| 20260504014511 | 50 | 161 | 0.0 | 0.9 | 0.00 | 0.00 | 0.00 | 75 | 1015.4 |
| 20260504013011 | 51 | 161 | 0.0 | 0.9 | 0.00 | 0.00 | 0.00 | 74 | 1015.3 |
| 20260504011509 | 50 | 161 | 0.0 | 0.9 | 0.00 | 0.00 | 0.00 | 75 | 1015.4 |
| 20260504010011 | 50 | 161 | 0.0 | 0.0 | 0.00 | 0.00 | 0.00 | 74 | 1015.6 |
| 20260504004515 | 50 | 161 | 0.0 | 2.6 | 0.00 | 0.00 | 0.00 | 73 | 1015.8 |
| 20260504003008 | 50 | 164 | 0.0 | 0.9 | 0.00 | 0.00 | 0.00 | 76 | 1015.5 |
| 20260504001511 | 50 | 164 | 0.0 | 1.7 | 0.00 | 0.00 | 0.00 | 76 | 1015.3 |
| 20260504000009 | 50 | 164 | 0.0 | 1.7 | 0.00 | 0.00 | 0.00 | 76 | 1015.3 |
| 20260503234509 | 51 | 164 | 0.0 | 1.7 | 0.00 | 0.00 | 0.00 | 76 | 1015.6 |
| 20260503233009 | 51 | 219 | 0.0 | 0.9 | 0.00 | 0.00 | 0.00 | 72 | 1015.7 |
| 20260503231508 | 51 | 219 | 0.0 | 2.6 | 0.00 | 0.00 | 0.00 | 71 | 1016.4 |
| 20260503230011 | 52 | 219 | 0.9 | 9.6 | 0.00 | 0.00 | 0.00 | 67 | 1016.7 |
| 20260503224509 | 54 | 211 | 5.2 | 13.0 | 0.00 | 0.00 | 0.00 | 62 | 1017.2 |
| 20260503223006 | 55 | 284 | 7.0 | 13.9 | 0.00 | 0.00 | 0.00 | 56 | 1017.0 |
| 20260503221509 | 56 | 221 | 6.1 | 17.4 | 0.00 | 0.00 | 0.00 | 54 | 1016.7 |
| 20260503220009 | 58 | 248 | 7.0 | 13.0 | 0.00 | 0.00 | 0.00 | 48 | 1016.5 |
| 20260503214514 | 59 | 218 | 3.5 | 8.7 | 0.00 | 0.00 | 0.00 | 47 | 1016.3 |
| 20260503213026 | 59 | 272 | 6.1 | 12.2 | 0.00 | 0.00 | 0.00 | 45 | 1016.4 |
| 20260503211517 | 59 | 274 | 5.2 | 12.2 | 0.00 | 0.00 | 0.00 | 44 | 1016.6 |
| 20260503210013 | 59 | 255 | 7.8 | 14.8 | 0.00 | 0.00 | 0.00 | 44 | 1016.7 |
| 20260503204511 | 60 | 242 | 3.5 | 9.6 | 0.00 | 0.00 | 0.00 | 41 | 1016.7 |
| 20260503203009 | 61 | 245 | 4.3 | 12.2 | 0.00 | 0.00 | 0.00 | 41 | 1016.7 |
| 20260503201525 | 62 | 239 | 6.1 | 13.9 | 0.00 | 0.00 | 0.00 | 41 | 1016.9 |
| 20260503200011 | 61 | 257 | 6.1 | 13.0 | 0.00 | 0.00 | 0.00 | 43 | 1016.9 |
| 20260503194513 | 61 | 188 | 5.2 | 14.8 | 0.00 | 0.00 | 0.00 | 40 | 1017.2 |
| 20260503193013 | 61 | 249 | 7.8 | 13.9 | 0.00 | 0.00 | 0.00 | 41 | 1017.5 |
| 20260503191509 | 61 | 286 | 6.1 | 11.3 | 0.00 | 0.00 | 0.00 | 43 | 1017.8 |
| 20260503190020 | 61 | 207 | 4.3 | 13.0 | 0.00 | 0.00 | 0.00 | 42 | 1018.1 |